• Join FlightAware (Why Join?)
  • Login
  • US Flag 
03:01PM EST


 

Airport Tracker/Info


-or-


 

Live Flight TrackerFlight Track Log ✈ N959RP ✈ 25-Apr-2012 ✈ KGRR - KAIK

Flight Track Log - Related Links

Times and Time Zones

All times are in EDT time to prevent confusion due to time zone crossing. See the N959RP flight status page for this flight to view local times or setup timezone preferences in your user account.

Time Position Orientation Groundspeed Altitude Reporting Facility
EDT Latitude Longitude Course Direction KTS MPH feet Rate Location/Type
12:32PM 42.8383 -85.4931 139° Southeast 194 223 3,100  Level Chicago Center
12:33PM 42.7861 -85.4311 160° South 254 292 5,300 2,450 Climbing Chicago Center
12:34PM 42.7203 -85.3986 175° South 287 330 8,000 2,700 Climbing Chicago Center
12:35PM 42.6283 -85.3875 176° South 303 349 10,700 2,450 Climbing Chicago Center
12:36PM 42.5361 -85.3792 174° South 338 389 12,900 2,600 Climbing Chicago Center
12:37PM 42.4253 -85.3636 176° South 379 436 15,900 2,900 Climbing Chicago Center
12:38PM 42.3039 -85.3517 174° South 417 480 18,700 2,500 Climbing Chicago Center
12:39PM 42.1822 -85.3342 175° South 436 502 20,900 2,200 Climbing Chicago Center
12:40PM 42.0544 -85.3197 175° South 449 517 23,100 2,000 Climbing Chicago Center
12:41PM 41.9122 -85.3036 174° South 461 531 24,900 1,900 Climbing Chicago Center
12:42PM 41.7781 -85.2842 175° South 476 548 26,900 1,550 Climbing Chicago Center
12:43PM 41.6378 -85.2681 175° South 491 565 28,000 1,250 Climbing Chicago Center
12:44PM 41.4953 -85.2519 174° South 509 586 29,400 1,750 Climbing Chicago Center
12:45PM 41.3550 -85.2333 175° South 515 593 31,500 1,976 Climbing Chicago Center
12:47PM 41.1189 -85.2069 175° South 510 587 34,800 1,573 Climbing Indianapolis Center
12:48PM 40.9775 -85.1897 169° South 505 581 35,800 1,000 Climbing Indianapolis Center
12:49PM 40.8364 -85.1533 168° South 511 588 36,800 1,150 Climbing Indianapolis Center
12:50PM 40.7097 -85.1175 168° South 518 596 38,100 1,200 Climbing Indianapolis Center
12:51PM 40.5728 -85.0789 168° South 524 603 39,200 1,100 Climbing Indianapolis Center
12:52PM 40.4336 -85.0406 168° South 510 587 40,300 900 Climbing Indianapolis Center
12:53PM 40.3006 -85.0022 174° South 501 577 41,000 350 Climbing Indianapolis Center
12:54PM 40.1675 -84.9831 177° South 496 571 41,000  Level Indianapolis Center
12:55PM 40.0197 -84.9719 176° South 490 564 41,000  Level Indianapolis Center
12:56PM 39.8883 -84.9614 177° South 484 557 41,000  Level Indianapolis Center
12:57PM 39.7572 -84.9533 176° South 484 557 41,000  Level Indianapolis Center
12:58PM 39.6239 -84.9425 170° South 469 540 41,000  Level Indianapolis Center
12:59PM 39.4950 -84.9131 168° South 474 545 41,000  Level Indianapolis Center
01:00PM 39.3828 -84.8814 167° South 480 552 41,000  Level Indianapolis Center
01:01PM 39.2475 -84.8414 167° South 486 559 41,000  Level Indianapolis Center
01:02PM 39.1167 -84.8017 167° South 486 559 41,000  Level Indianapolis Center
01:03PM 38.9878 -84.7644 166° South 486 559 41,000  Level Indianapolis Center
01:04PM 38.8567 -84.7225 167° South 486 559 41,000  Level Indianapolis Center
01:05PM 38.7278 -84.6858 168° South 486 559 41,000  Level Indianapolis Center
01:06PM 38.5781 -84.6461 169° South 486 559 41,000  Level Indianapolis Center
01:07PM 38.4450 -84.6125 167° South 491 565 41,000  Level Indianapolis Center
01:08PM 38.3097 -84.5733 166° South 491 565 41,000  Level Indianapolis Center
01:09PM 38.1767 -84.5319 167° South 491 565 41,000  Level Indianapolis Center
01:10PM 38.0414 -84.4931 168° South 491 565 41,000  Level Indianapolis Center
01:11PM 37.9058 -84.4572 166° South 491 565 41,000  Level Indianapolis Center
01:12PM 37.7706 -84.4161 167° South 491 565 41,000  Level Indianapolis Center
01:13PM 37.6353 -84.3781 167° South 496 571 41,000  Level Indianapolis Center
01:14PM 37.5000 -84.3397 167° South 496 571 41,000  Level Indianapolis Center
01:15PM 37.3647 -84.3017 168° South 501 577 41,000  Level Indianapolis Center
01:16PM 37.2272 -84.2639 167° South 506 582 41,000  Level Indianapolis Center
01:18PM 36.9675 -84.1894 167° South 503 579 41,000  Level Atlanta Center
01:19PM 36.8297 -84.1503 168° South 508 585 41,000  Level Atlanta Center
01:20PM 36.6922 -84.1139 167° South 508 585 41,000  Level Atlanta Center
01:21PM 36.5525 -84.0750 168° South 508 585 41,000  Level Atlanta Center
01:22PM 36.4294 -84.0414 167° South 508 585 41,000 -149 Level Atlanta Center
01:23PM 36.2897 -84.0028 167° South 508 585 40,700 -650 Descending Atlanta Center
01:24PM 36.1564 -83.9642 168° South 503 579 39,700 -1,008 Descending Atlanta Center
01:25PM 36.0186 -83.9283 161° South 503 579 38,700 -1,000 Descending Atlanta Center
01:26PM 35.8892 -83.8747 143° Southeast 503 579 37,700 -992 Descending Atlanta Center
01:27PM 35.7783 -83.7725 140° Southeast 483 556 36,700 -1,000 Descending Atlanta Center
01:28PM 35.6717 -83.6606 141° Southeast 494 568 35,700 -857 Descending Atlanta Center
01:29PM 35.5586 -83.5461 141° Southeast 507 583 35,000 -744 Descending Atlanta Center
01:30PM 35.4478 -83.4372 141° Southeast 513 590 34,200 -550 Descending Atlanta Center
01:31PM 35.3344 -83.3233 142° Southeast 524 603 33,900 -504 Descending Atlanta Center
01:32PM 35.2125 -83.2050 140° Southeast 518 596 33,200 -843 Descending Atlanta Center
01:33PM 35.1181 -83.1069 141° Southeast 513 590 32,200 -1,500 Descending Atlanta Center
01:34PM 35.0108 -82.9992 141° Southeast 503 579 30,200 -2,319 Descending Atlanta Center
01:35PM 34.8992 -82.8889 142° Southeast 503 579 27,600 -2,479 Descending Atlanta Center
01:36PM 34.7853 -82.7792 141° Southeast 515 593 25,200 -1,300 Descending Atlanta Center
01:37PM 34.6736 -82.6697 141° Southeast 521 600 25,000 -908 Descending Atlanta Center
01:38PM 34.5661 -82.5656 142° Southeast 516 594 23,400 -2,033 Descending Atlanta Center
01:39PM 34.4583 -82.4617 141° Southeast 511 588 20,900 -2,550 Descending Atlanta Center
01:40PM 34.3589 -82.3628 142° Southeast 489 563 18,300 -2,571 Descending Atlanta Center
01:41PM 34.2594 -82.2694 142° Southeast 463 533 15,800 -2,450 Descending Atlanta Center
01:42PM 34.1642 -82.1811 141° Southeast 450 518 13,400 -2,350 Descending Atlanta Center
01:43PM 34.0753 -82.0928 141° Southeast 432 497 11,100 -1,400 Descending Atlanta Center
01:44PM 33.9967 -82.0167 137° Southeast 402 463 10,600 -1,250 Descending Atlanta Center
01:45PM 33.9286 -81.9408 129° Southeast 361 415 8,600 -2,000 Descending Atlanta Center
01:46PM 33.8731 -81.8572 129° Southeast 324 373 6,600 -1,950 Descending Atlanta Center
01:47PM 33.8236 -81.7833 132° Southeast 302 348 4,700 -1,400 Descending Atlanta Center
01:48PM 33.7722 -81.7147 133° Southeast 290 334 3,800 -650 Descending Atlanta Center
01:49PM 33.7144 -81.6414 133° Southeast 277 319 3,400 10,600 Descending Atlanta Center
01:50PM 33.6608 -81.5731 133° Southeast 277 319 25,000 21,600 Climbing Atlanta Center